This is the latest recevied weather packets stored in our database for station/object W0WC. If no packets are shown the sender has not sent any weather packets the latest 10 day(s).
| Time | Temp. | Humidity | Pressure | Rain* | Wind** | Luminosity | Snow |
|---|---|---|---|---|---|---|---|
| 1788551097 | 37.78° C | 36% | 1014.6 hPa | 0 mm | - | 658 W/m² | - |
| 1788550792 | 37.78° C | 36% | 1014.6 hPa | 0 mm | - | 666 W/m² | - |
| 1788550487 | 37.78° C | 36% | 1014.7 hPa | 0 mm | - | 671 W/m² | - |
| 1788550182 | 37.22° C | 37% | 1014.9 hPa | 0 mm | - | 679 W/m² | - |
| 1788549877 | 36.67° C | 38% | 1014.7 hPa | 0 mm | - | 683 W/m² | - |
| 1788549573 | 36.67° C | 38% | 1014.9 hPa | 0 mm | - | 694 W/m² | - |
| 1788549270 | 36.11° C | 40% | 1014.9 hPa | 0 mm | - | 694 W/m² | - |
| 1788548967 | 36.11° C | 40% | 1015 hPa | 0 mm | - | 700 W/m² | - |
| 1788548666 | 35.56° C | 40% | 1015 hPa | 0 mm | - | 704 W/m² | - |
| 1788548363 | 35.56° C | 41% | 1015.3 hPa | 0 mm | - | 736 W/m² | - |
| 1788548059 | 36.11° C | 41% | 1015.3 hPa | 0 mm | - | 121 W/m² | - |
| 1788547758 | 36.11° C | 41% | 1015.2 hPa | 0 mm | - | 708 W/m² | - |
| 1788547453 | 36.11° C | 41% | 1015.3 hPa | 0 mm | - | 357 W/m² | - |
| 1788547149 | 36.11° C | 42% | 1015.4 hPa | 0 mm | - | 720 W/m² | - |
| 1788546843 | 36.11° C | 41% | 1015.5 hPa | 0 mm | - | 723 W/m² | - |
| 1788546540 | 36.11° C | 39% | 1015.6 hPa | 0 mm | - | 715 W/m² | - |
| 1788546240 | 36.11° C | 41% | 1015.7 hPa | 0 mm | - | 723 W/m² | - |
| 1788545935 | 35.56° C | 41% | 1015.6 hPa | 0 mm | - | 708 W/m² | - |
| 1788545629 | 35.56° C | 42% | 1015.6 hPa | 0 mm | - | 733 W/m² | - |
| 1788545325 | 35.56° C | 43% | 1015.6 hPa | 0 mm | - | 721 W/m² | - |
| 1788545015 | 35° C | 45% | 1015.9 hPa | 0 mm | - | 727 W/m² | - |
| 1788544714 | 35° C | 45% | 1016 hPa | 0 mm | - | 724 W/m² | - |
| 1788544412 | 35.56° C | 44% | 1016 hPa | 0 mm | - | 717 W/m² | - |
| 1788544107 | 35.56° C | 43% | 1016.1 hPa | 0 mm | - | 711 W/m² | - |
| 1788543803 | 35° C | 44% | 1016 hPa | 0 mm | - | 706 W/m² | - |
* Rain latest hour (hover to see other rain measurements)
** Current wind speed in m/s (hover to see current wind gust speed)